This is the latest recevied weather packets stored in our database for station/object KC9EGS. If no packets are shown the sender has not sent any weather packets the latest 10 day(s).
| Time | Temp. | Humidity | Pressure | Rain* | Wind** | Luminosity | Snow |
|---|---|---|---|---|---|---|---|
| 1777932921 | 16.11° C | 28% | 990.8 hPa | 0 mm | - | - | - |
| 1777932615 | 16.11° C | 29% | 990.5 hPa | 0 mm | - | - | - |
| 1777932320 | 16.11° C | 32% | 990.5 hPa | 0 mm | - | - | - |
| 1777931715 | 16.11° C | 31% | 990.3 hPa | 0 mm | - | - | - |
| 1777931122 | 15.56° C | 35% | 990.3 hPa | 0 mm | - | - | - |
| 1777930816 | 15.56° C | 35% | 990.2 hPa | 0 mm | - | - | - |
| 1777929915 | 16.11° C | 36% | 990.1 hPa | 0 mm | - | - | - |
| 1777929016 | 16.11° C | 38% | 990 hPa | 0 mm | - | - | - |
| 1777928721 | 16.11° C | 37% | 990 hPa | 0 mm | - | - | - |
| 1777928115 | 16.67° C | 35% | 989.8 hPa | 0 mm | - | - | - |
| 1777927520 | 17.22° C | 35% | 989.8 hPa | 0 mm | - | - | - |
| 1777927216 | 16.67° C | 35% | 989.7 hPa | 0 mm | - | - | - |
| 1777926922 | 16.67° C | 35% | 989.7 hPa | 0 mm | - | - | - |
| 1777926316 | 16.67° C | 34% | 989.7 hPa | 0 mm | - | - | - |
| 1777925720 | 16.67° C | 33% | 989.7 hPa | 0 mm | - | - | - |
| 1777925415 | 16.67° C | 35% | 989.7 hPa | 0 mm | - | - | - |
| 1777925121 | 16.67° C | 31% | 989.7 hPa | 0 mm | - | - | - |
| 1777924515 | 16.67° C | 32% | 989.3 hPa | 0 mm | - | - | - |
| 1777923922 | 16.67° C | 32% | 989.3 hPa | 0 mm | - | - | - |
| 1777923615 | 17.22° C | 31% | 989.5 hPa | 0 mm | - | - | - |
| 1777922717 | 17.22° C | 30% | 989.1 hPa | 0 mm | - | - | - |
| 1777922122 | 17.22° C | 27% | 989.1 hPa | 0 mm | - | - | - |
| 1777921815 | 17.78° C | 26% | 988.8 hPa | 0 mm | - | - | - |
| 1777921521 | 17.78° C | 27% | 988.8 hPa | 0 mm | - | - | - |
| 1777920914 | 18.33° C | 27% | 988.7 hPa | 0 mm | - | - | - |
* Rain latest hour (hover to see other rain measurements)
** Current wind speed in m/s (hover to see current wind gust speed)